Temp
28 27 27 28 27 27 27 26 26 27 27 27 27 27 27 28 28 28 28 28 28 28 27 28 27 27 27 27 28 27 27 26 26 26 26 25 26 26 26 26 25 26 26 26 27 27 27 26 26 26 27 27 27 27 27 27 27 27 27 27 27 27 26 26 26 26 27 27 27 28 28 28 28 28 28 27 27 27 26 26 26 26 26 26 26
28 28 28 28 28 27 27 27 27 27 27 27 27 27 27 28 28 28 28 28 28 28 27 28 28 27 27 27 28 28 27 27 27 26 26 26 26 26 26 26 26 26 26 26 26 26 27 26 26 26 26 26 27 27 27 28 28 27 27 27 27 27 27 26 26 26 27 27 27 27 28 28 28 28 27 27 27 27 26 26 26 26 26 26 25
29 28 28 28 28 28 27 27 27 27 28 28 28 28 28 28 28 28 28 28 28 28 28 28 28 27 27 28 28 28 27 27 27 27 26 26 26 26 27 26 26 26 26 26 26 26 26 26 27 27 27 27 27 27 27 28 28 28 28 28 27 27 27 27 26 26 27 27 27 27 28 28 28 28 27 27 27 26 26 26 26 26 26 26 26
30 29 28 28 28 28 28 28 28 28 28 28 28 28 28 28 28 28 28 29 28 28 28 28 28 27 27 28 27 27 27 27 27 27 27 26 26 26 27 27 26 26 26 26 26 26 26 27 27 27 27 27 27 27 27 28 28 28 28 28 28 27 27 27 27 26 26 26 27 27 27 27 27 27 27 27 27 26 26 26 26 26 26 26 26
31 29 29 29 29 28 28 28 28 28 29 29 29 29 29 29 28 28 28 29 29 28 28 28 28 27 27 27 27 27 27 27 27 27 27 27 26 26 27 27 26 26 26 26 26 26 26 27 27 27 27 27 27 27 27 27 28 28 28 28 28 27 27 27 27 26 26 26 26 26 26 26 26 26 26 26 26 26 26 25 25 25 25 25 25
32 30 30 30 29 29 29 29 29 29 29 29 29 29 30 30 29 28 28 29 29 29 28 28 28 27 27 27 27 27 27 27 26 27 27 27 27 27 27 27 27 26 26 26 27 27 27 27 27 27 27 27 27 27 27 27 27 27 27 27 27 27 27 27 26 26 26 26 26 26 26 26 26 26 26 26 26 26 25 25 25 25 25 25 25
32 31 30 30 30 29 29 29 29 29 29 30 30 30 30 30 30 29 29 29 29 29 29 28 27 27 27 27 27 27 26 27 26 26 27 28 27 27 27 27 27 27 27 27 27 27 27 27 27 27 27 27 27 27 28 27 27 27 27 27 27 27 27 27 27 26 26 26 26 26 27 27 27 27 27 26 26 26 26 25 25 25 25 25 26
32 31 30 30 30 30 30 30 30 30 29 30 30 30 30 30 30 30 29 29 29 30 29 28 27 27 27 27 27 27 26 26 26 26 26 27 27 27 27 27 27 27 27 27 27 28 28 28 28 28 28 27 27 27 28 28 28 27 27 27 27 27 27 27 27 27 27 27 27 27 27 27 27 27 27 27 26 26 26 26 26 26 26 26 26
32 31 31 31 30 30 30 30 30 30 29 29 30 30 30 30 30 30 29 29 29 29 30 29 28 27 27 27 27 27 27 27 27 26 26 27 27 27 27 27 28 28 28 28 28 28 28 28 29 29 28 28 27 27 27 27 28 27 27 27 27 27 26 26 27 27 27 27 27 27 27 27 27 27 27 27 27 27 27 27 27 26 26 26 26
32 32 31 31 30 30 30 30 29 29 29 29 29 30 30 30 30 30 29 29 29 29 29 29 29 28 27 27 27 27 27 27 27 27 26 26 27 28 28 27 27 28 28 28 28 28 28 28 29 29 29 28 28 27 27 27 27 27 27 27 27 26 26 26 27 27 27 27 27 27 27 27 28 28 28 28 28 28 28 27 27 26 26 26 26
32 32 31 31 30 30 30 29 29 29 29 29 29 29 30 30 30 30 29 29 29 29 29 29 29 29 28 28 28 28 28 28 27 27 26 26 27 27 28 28 27 27 28 28 28 28 28 28 29 29 29 28 28 27 27 27 27 27 27 27 27 26 26 26 26 26 27 27 27 27 27 28 28 28 28 28 28 28 28 27 26 26 25 25 25
32 32 31 31 30 30 29 29 29 29 29 29 28 29 29 29 29 29 29 29 28 28 29 29 29 29 29 28 28 28 28 28 28 27 26 27 27 27 28 28 28 27 27 28 28 28 28 28 29 29 29 28 28 27 27 27 27 26 26 26 26 26 26 26 26 26 26 26 26 27 27 27 27 27 27 28 27 27 26 26 25 25 25 25 25
32 32 31 30 30 29 29 29 29 28 28 28 28 28 29 29 29 29 29 28 28 28 28 28 29 29 29 29 29 29 29 28 28 27 27 27 27 27 28 28 28 28 28 28 28 28 28 28 29 29 29 29 28 27 27 26 26 26 26 26 26 26 26 25 25 25 25 25 25 25 26 26 26 26 26 26 26 26 25 25 24 24 24 24 24
32 32 31 30 30 29 29 29 28 28 28 28 28 28 28 28 28 28 29 28 28 28 28 28 28 28 29 29 29 29 29 29 28 27 27 27 27 27 27 28 28 29 28 28 28 28 28 28 28 28 28 28 28 27 27 26 26 26 25 25 25 25 25 25 25 25 25 24 24 24 25 25 25 25 25 25 25 25 24 24 23 23 23 23 23
32 31 31 30 29 29 29 28 28 28 28 27 27 27 28 28 28 28 28 28 28 27 28 28 28 28 28 29 29 29 29 29 28 28 27 27 27 27 26 27 28 28 28 28 28 28 28 27 27 27 28 28 28 27 27 27 26 26 25 25 25 25 25 25 25 26 25 25 25 25 25 25 25 25 25 25 25 24 24 23 23 23 23 22 23
32 31 31 30 29 29 29 28 28 28 27 27 27 27 27 27 28 28 28 29 28 28 28 28 28 28 28 28 28 29 29 29 29 28 27 27 26 26 25 25 26 27 27 27 27 27 27 27 27 27 27 27 27 27 27 27 27 26 26 26 26 26 26 26 26 26 26 26 26 26 26 26 25 25 25 25 25 24 24 23 23 23 23 22 23
32 31 30 30 29 29 29 28 28 28 27 27 27 27 27 27 27 28 28 29 29 28 28 28 28 28 28 28 28 28 29 29 28 28 27 27 26 25 25 24 25 25 26 27 27 27 27 27 27 27 27 27 27 27 26 26 26 26 26 26 27 27 27 27 27 27 27 27 27 27 27 26 26 25 25 25 24 24 23 23 23 23 23 23 23
32 31 30 30 30 29 29 28 28 28 27 27 27 27 27 27 27 28 28 29 30 29 29 29 29 28 28 28 28 28 29 29 28 28 27 27 26 25 24 24 25 25 25 26 26 26 26 26 26 26 27 27 27 26 26 26 25 25 25 26 26 27 27 27 28 28 28 27 27 27 26 26 26 25 25 24 24 23 23 22 23 23 23 22 22
32 31 30 30 30 29 29 28 28 28 27 27 28 28 28 28 28 28 28 29 30 30 30 29 29 29 29 28 28 28 29 29 28 28 27 27 26 25 25 25 25 25 25 26 26 26 26 26 26 26 26 26 26 26 26 25 25 25 25 25 26 26 27 27 28 28 28 27 27 26 26 26 25 25 24 24 24 23 23 23 22 22 22 22 23
32 31 30 30 30 29 29 28 28 28 28 27 28 28 28 28 28 28 28 29 29 30 30 30 30 30 29 29 29 28 29 29 29 28 27 27 26 26 25 25 25 25 26 26 26 26 26 26 26 26 26 26 26 26 25 25 25 25 25 25 26 26 27 27 27 27 26 26 26 26 25 25 24 24 24 24 24 24 24 23 23 23 22 22 23
32 31 30 30 30 29 29 29 28 28 28 28 28 28 28 28 28 28 29 29 29 30 30 30 30 30 30 30 30 29 29 29 29 28 27 27 26 26 25 25 26 26 26 26 26 27 27 26 26 26 26 26 26 26 25 25 25 24 24 25 25 26 26 26 25 25 25 25 25 25 25 24 24 25 25 25 25 25 25 25 24 24 23 22 23
31 30 30 30 30 30 29 29 28 28 28 28 28 28 28 29 29 28 29 30 29 29 30 30 31 31 30 30 30 30 29 29 28 28 28 27 26 26 26 25 26 26 26 26 27 27 27 27 27 27 26 26 26 26 25 25 25 24 24 24 24 24 24 24 24 24 24 24 25 25 24 24 24 25 26 26 25 25 26 25 24 23 23 23 23
31 30 30 30 30 30 29 29 28 28 28 28 28 28 28 29 29 28 29 29 29 29 29 29 30 30 31 30 30 30 29 29 28 28 28 27 27 26 26 26 25 26 26 27 27 27 28 28 28 27 27 26 26 26 25 25 24 24 24 24 23 23 23 23 23 23 23 24 24 23 23 24 25 25 25 25 25 24 24 23 23 23 23 23 22
31 30 30 30 30 30 29 29 29 29 28 28 28 28 28 29 29 28 28 29 29 29 29 29 29 30 30 31 30 30 30 29 28 28 28 27 27 26 26 26 25 25 26 27 27 28 28 28 28 28 27 27 26 26 25 25 24 24 24 23 23 23 23 22 22 22 22 22 22 22 23 24 24 25 24 24 23 23 22 22 22 22 22 22 22
30 30 30 30 30 30 29 29 29 29 29 28 28 28 28 29 29 28 28 29 29 29 29 29 29 29 30 30 30 30 30 29 28 28 27 27 27 26 26 26 25 25 25 26 27 27 27 27 27 27 27 27 26 25 25 24 24 23 23 23 23 22 22 22 22 22 21 21 22 23 24 24 24 23 23 22 22 22 22 22 21 21 21 22 22
30 30 30 30 30 30 29 29 29 29 29 28 28 28 28 29 29 28 28 29 29 29 29 29 29 29 29 30 30 30 30 30 29 28 28 27 27 26 26 26 25 25 25 25 26 26 26 26 26 26 26 25 25 25 24 24 24 23 23 23 23 22 22 22 22 21 21 22 23 24 24 24 23 22 22 21 21 21 21 21 21 21 21 22 21
30 30 30 30 30 30 30 29 29 29 29 29 29 29 29 29 29 28 28 29 29 29 29 29 29 29 29 30 30 30 30 30 30 29 27 27 27 26 26 25 25 24 24 24 25 25 25 25 25 24 24 24 24 24 24 23 23 23 23 23 23 23 23 22 21 21 22 23 24 24 23 22 22 22 21 21 21 21 21 20 20 21 21 21 21
29 30 30 30 30 30 30 29 29 30 30 30 30 29 29 29 29 29 29 29 29 29 29 29 29 30 30 30 30 30 30 30 30 29 28 27 27 26 25 25 24 24 24 23 23 24 24 24 23 23 23 23 23 24 23 23 23 23 23 23 23 23 23 22 21 21 22 22 23 22 21 21 21 21 21 21 21 21 21 20 20 20 20 20 20
29 30 30 30 30 29 30 30 30 30 30 29 29 29 28 29 29 29 29 29 30 30 30 30 30 30 30 30 30 30 29 29 30 29 28 27 27 26 25 25 24 24 24 23 23 23 23 23 23 23 23 23 24 24 24 23 23 23 23 23 23 23 22 21 21 21 21 21 21 20 20 21 21 21 21 22 21 21 20 20 19 19 19 20 21
30 30 30 30 30 30 30 31 30 31 31 28 26 26 26 27 29 29 28 29 29 29 30 30 30 30 30 30 29 29 29 29 29 29 28 27 27 26 26 26 25 25 24 24 23 23 24 23 23 24 24 25 25 25 25 24 23 23 23 23 23 23 22 21 22 22 21 20 20 20 20 21 21 21 21 22 21 21 21 20 20 20 20 20 21
30 30 30 31 31 30 31 31 31 31 31 28 26 25 25 25 26 27 27 28 28 28 29 29 29 29 29 29 28 28 28 28 28 28 28 27 27 26 26 26 26 25 24 24 23 23 24 24 25 25 25 25 25 26 25 24 23 23 23 23 23 23 22 22 23 22 21 20 20 20 20 21 21 21 21 21 21 22 21 21 21 21 21 21 21
30 31 31 31 31 31 31 32 31 31 31 28 27 26 25 24 24 24 24 26 27 27 27 27 27 28 28 28 28 28 28 28 28 28 28 27 27 27 26 26 26 25 24 23 23 24 25 25 26 26 26 26 26 26 25 24 23 23 23 23 22 22 22 22 22 21 20 20 20 20 20 21 21 21 21 21 21 22 22 22 21 21 21 21 21
30 31 31 31 30 30 31 31 31 31 30 29 27 27 27 26 24 22 21 23 24 25 26 26 26 26 27 27 27 27 27 27 27 27 27 26 26 26 26 25 25 25 24 23 23 24 25 26 26 26 26 25 25 25 24 24 23 22 22 22 22 21 21 20 20 20 20 20 20 20 21 21 21 21 21 22 22 22 22 22 22 22 21 21 21
30 30 30 30 30 29 30 31 30 31 30 29 28 28 28 28 26 23 22 22 23 23 24 24 24 25 25 25 26 26 26 26 26 26 26 26 26 26 25 24 24 24 24 23 23 24 25 24 24 24 24 24 23 23 22 22 21 20 21 21 20 20 19 19 19 20 20 20 21 22 22 22 22 22 22 22 22 22 22 22 22 22 21 21 21
28 28 28 29 29 29 30 30 29 30 30 29 28 28 28 27 26 25 24 25 25 23 21 21 22 23 24 24 24 25 25 25 25 25 25 25 25 24 24 23 23 23 22 22 22 23 23 22 21 22 22 22 21 21 20 20 19 20 20 20 19 19 19 19 19 20 20 21 22 22 22 22 22 22 22 22 22 22 22 22 22 22 21 21 21
27 27 28 28 29 29 29 29 29 29 28 28 28 28 27 26 26 26 26 25 23 21 18 18 19 21 22 23 23 24 24 24 25 24 24 23 23 23 22 22 22 21 21 20 20 21 21 20 20 19 19 20 20 19 19 19 19 20 20 20 20 19 19 19 20 20 21 21 22 22 21 21 21 21 22 22 22 22 22 22 22 21 21 21 20
23 24 25 26 27 28 28 28 28 28 27 28 27 26 25 25 26 26 25 23 20 18 17 17 18 19 19 20 21 22 22 23 23 22 22 21 21 21 20 20 20 19 19 18 18 19 18 18 18 18 19 19 19 19 20 20 20 20 20 20 20 19 19 20 20 20 20 21 21 21 20 21 21 21 21 22 22 22 22 22 21 21 21 20 20
21 21 22 23 25 26 27 26 27 27 27 27 27 25 25 25 25 24 23 21 19 18 17 17 17 17 17 18 19 20 20 20 20 20 20 20 20 19 19 18 18 18 18 18 18 18 18 18 18 19 19 19 19 19 20 19 19 19 19 19 19 19 20 20 20 19 20 21 21 21 21 21 21 21 21 21 22 22 21 21 21 21 21 21 21
20 20 21 22 23 24 24 25 26 26 26 26 25 24 24 24 23 22 21 20 19 19 18 18 17 17 16 16 17 18 19 19 19 20 20 20 20 19 18 18 17 17 17 17 18 18 18 19 19 19 19 19 19 19 19 19 18 18 18 19 19 19 19 19 19 19 19 21 22 22 22 21 21 21 21 21 21 22 21 21 21 21 21 21 21
19 19 20 21 21 21 22 23 24 25 24 24 24 23 23 23 22 21 21 20 20 20 19 18 18 17 17 17 18 19 20 20 20 19 19 19 19 18 18 18 17 17 17 17 17 17 18 18 19 19 18 18 18 19 19 19 19 19 19 20 20 20 20 20 20 20 20 21 22 22 21 21 21 21 21 21 21 21 21 20 21 21 21 21 21
19 18 19 19 20 20 20 20 20 21 22 22 22 22 22 22 21 21 21 21 21 20 19 18 18 17 18 18 19 21 21 20 19 18 18 18 17 17 17 17 17 16 16 16 16 16 16 16 16 16 16 17 18 18 19 20 20 20 20 20 21 21 21 22 21 21 21 21 22 22 21 21 21 21 21 21 20 20 20 20 21 21 21 21 21
19 18 18 18 18 18 18 18 18 19 19 19 19 20 20 20 20 20 20 20 19 18 17 16 16 17 18 18 19 20 19 19 18 17 17 16 15 15 15 15 15 15 14 14 14 14 14 15 15 15 15 15 16 17 18 19 19 19 20 20 20 20 21 21 21 20 20 20 21 21 20 20 20 20 20 20 20 20 21 21 21 21 21 21 21
18 17 17 16 17 17 16 16 16 17 17 16 16 17 17 18 18 18 17 17 16 16 15 15 15 16 16 17 17 17 17 16 16 16 15 15 14 14 14 14 14 14 14 13 13 13 13 13 13 13 13 14 15 15 16 16 17 17 18 18 18 18 18 19 19 19 19 20 20 19 19 19 20 20 20 20 20 20 21 21 21 21 21 20 20
18 17 16 16 16 16 15 15 15 15 15 15 15 15 15 15 15 15 15 14 14 15 15 15 14 15 15 15 16 16 16 15 15 15 14 14 14 14 14 14 14 14 14 13 13 13 13 12 12 12 12 13 14 13 13 13 13 14 14 15 15 15 15 15 15 16 16 17 18 18 18 19 19 19 19 20 20 20 20 21 20 20 20 20 20
19 18 17 16 16 16 15 15 15 14 14 15 15 14 14 14 14 14 14 14 14 14 15 15 15 15 15 15 15 15 14 14 14 14 14 14 14 14 14 14 13 13 13 13 12 12 12 12 12 11 11 11 11 11 11 11 11 11 12 12 12 12 13 13 13 14 14 14 15 16 17 17 18 18 18 19 19 19 20 20 20 20 20 20 20
19 18 17 17 16 16 15 15 15 14 14 14 13 13 13 14 14 14 14 14 14 14 15 15 16 16 15 15 14 14 13 13 13 13 13 13 13 13 13 12 12 12 11 11 11 11 11 11 10 10 10 10 10 10 10 10 10 10 11 12 12 12 12 12 13 13 13 13 13 14 15 15 16 17 17 17 17 18 18 18 19 19 19 19 19
19 18 17 17 16 16 15 15 14 14 14 13 13 12 12 12 12 12 12 13 13 13 14 14 14 14 14 13 13 12 12 12 12 13 13 13 12 12 12 11 11 11 10 10 10 10 10 10 10 10 10 10 10 10 10 9 9 10 11 11 11 12 12 12 12 13 13 13 13 13 13 13 14 15 15 15 16 16 17 17 17 17 17 17 18
17 16 16 16 16 16 16 15 14 14 14 13 12 12 12 12 12 12 11 11 11 12 12 12 12 12 12 12 12 12 11 11 12 12 12 12 12 12 11 11 10 10 10 10 10 10 10 10 10 10 10 9 9 9 9 9 9 10 11 11 11 11 12 12 12 12 12 12 13 12 12 12 13 14 14 14 14 14 15 15 16 16 16 16 17
15 15 15 14 15 15 15 15 14 14 14 13 12 12 12 12 11 11 11 10 10 11 11 11 11 11 11 11 11 11 11 11 11 11 11 12 12 11 11 10 10 10 10 10 10 10 10 10 10 10 9 9 9 8 8 9 9 9 10 10 10 11 11 12 12 12 12 12 12 12 12 13 14 14 13 13 14 14 14 15 15 15 15 16 16
13 13 13 13 12 13 13 13 13 13 14 13 13 12 11 11 11 11 10 10 10 10 10 10 10 10 10 10 10 10 10 10 10 10 11 11 11 11 10 10 10 10 10 10 10 10 10 10 10 10 9 9 9 8 8 8 9 9 9 9 10 10 11 11 11 12 12 12 12 12 12 13 14 14 14 14 13 14 14 13 14 14 14 15 15
11 11 11 10 10 11 11 11 11 11 12 12 13 12 11 11 11 11 11 10 10 10 9 9 9 9 9 9 9 9 9 9 9 10 10 10 10 11 11 10 10 10 10 10 10 10 10 10 10 10 9 9 8 7 7 8 8 8 8 9 9 10 10 11 11 11 11 11 12 12 12 13 13 13 13 13 13 13 13 13 13 14 14 14 15
Height
768 772 775 779 783 786 790 794 798 801 804 807 809 812 814 816 818 820 822 825 826 828 830 832 834 836 837 839 841 843 844 846 848 850 851 853 853 854 855 856 857 858 859 859 859 859 860 860 861 861 861 861 861 861 861 861 862 861 862 862 862 863 863 863 862 861 860 860 859 858 857 856 855 855 854 853 851 850 848 847 847 846 845 844 842
764 767 771 775 778 782 786 790 794 797 800 803 806 808 811 812 815 817 819 822 824 826 828 829 831 833 835 836 838 840 842 843 846 847 849 850 851 853 854 854 855 856 857 857 858 858 858 859 859 859 860 860 860 860 860 860 860 860 860 860 861 861 861 861 861 860 859 859 858 857 856 855 854 853 852 850 849 848 847 846 844 843 842 841 840
759 763 767 770 774 778 782 786 790 793 796 799 802 804 807 809 812 814 816 819 821 823 825 827 828 830 832 834 835 837 839 841 843 844 846 848 849 850 851 852 853 854 855 856 856 857 857 857 858 858 858 858 858 858 858 858 858 858 858 858 859 859 859 859 859 859 858 857 857 855 854 853 852 850 850 848 847 846 845 844 842 842 841 839 838
755 759 762 766 770 774 778 782 786 789 792 795 797 800 803 806 808 811 813 815 817 820 822 824 826 827 829 831 832 835 836 838 840 842 843 845 846 848 849 850 851 852 853 854 854 855 855 856 856 856 857 857 857 857 857 857 857 857 857 857 857 857 857 858 858 857 857 856 855 854 853 851 849 848 847 846 845 844 843 842 841 840 839 838 837
749 754 758 762 766 770 774 777 781 784 787 790 793 796 799 802 805 807 809 812 814 817 819 821 823 824 826 828 829 831 833 835 837 839 840 842 843 845 846 848 849 850 851 851 852 853 853 854 854 854 855 855 855 855 855 855 856 856 856 856 856 856 856 856 856 856 855 854 853 852 851 849 847 845 844 844 843 842 841 840 839 839 838 836 835
744 749 754 757 761 765 769 772 776 779 783 786 789 792 795 797 801 803 806 808 810 813 815 818 820 821 823 825 826 828 830 832 834 836 838 839 841 842 844 845 846 847 848 849 850 851 851 851 852 852 853 853 853 853 853 854 854 854 854 854 854 854 854 854 854 854 853 853 852 850 849 847 845 843 842 842 842 841 840 838 837 837 836 835 834
739 744 749 753 756 760 763 767 771 775 778 782 785 788 790 793 796 799 802 804 807 809 811 814 816 818 820 822 823 825 827 829 831 833 835 836 838 840 841 842 843 845 845 846 847 848 848 849 849 850 850 851 851 852 852 852 852 852 852 852 852 852 852 852 852 852 851 850 850 848 846 845 844 841 840 840 840 839 839 837 835 835 834 833 832
734 739 744 748 751 754 758 762 766 770 774 778 781 784 786 789 792 795 799 801 803 805 808 810 813 815 817 818 820 822 824 826 828 830 832 834 835 837 838 839 841 841 843 843 844 845 845 846 846 847 847 848 849 850 850 850 850 850 850 850 851 851 850 850 850 849 849 848 847 845 844 843 842 840 839 838 837 837 837 836 834 833 832 831 830
730 735 739 742 746 750 754 759 762 766 771 774 777 780 783 786 789 792 795 797 800 802 804 807 809 812 814 815 817 819 820 822 824 826 828 830 832 834 835 836 838 839 840 840 841 842 843 843 843 844 844 845 846 847 848 848 848 848 848 848 849 849 848 848 847 847 846 845 843 843 842 841 840 838 837 836 835 834 833 833 832 831 830 828 827
727 730 734 737 742 747 751 755 759 763 766 770 773 776 779 783 785 788 791 794 797 799 801 804 806 808 810 812 813 815 816 818 819 821 824 826 829 831 832 833 835 836 837 838 839 839 840 840 840 841 842 842 843 844 844 845 846 846 846 847 847 847 846 846 845 844 843 842 840 840 839 837 837 836 834 833 833 832 831 830 829 829 828 826 825
723 726 730 734 739 743 748 752 755 759 762 766 770 773 776 779 782 785 788 791 793 796 798 800 802 804 807 808 810 811 812 813 815 817 820 823 825 827 829 830 831 833 834 835 836 836 837 838 838 838 839 840 840 841 841 842 843 843 844 844 844 844 844 843 843 842 841 839 837 836 836 834 834 834 833 832 831 830 829 828 828 827 827 825 823
720 724 728 732 736 740 744 748 751 755 759 762 766 769 773 776 778 781 784 787 790 792 794 797 799 801 803 805 806 807 808 810 811 813 816 819 821 824 826 827 828 829 831 831 833 833 834 835 835 835 836 837 837 838 838 839 839 840 840 841 841 841 841 841 840 839 838 836 834 833 833 832 831 831 831 830 830 829 828 828 827 826 825 824 822
719 723 726 730 733 736 740 744 748 752 755 759 762 766 770 773 775 778 780 783 786 789 791 793 795 798 799 801 803 804 805 807 808 810 812 815 818 820 822 824 825 826 827 828 829 830 831 832 832 832 833 834 834 835 835 836 836 836 837 837 837 837 837 837 837 836 835 834 832 830 830 830 829 829 830 830 828 828 828 827 827 826 824 823 822
716 720 724 727 730 734 737 740 744 748 752 756 759 763 766 769 772 775 778 780 783 785 787 790 792 794 796 798 799 801 802 803 804 807 809 812 814 816 819 821 822 822 824 825 826 827 828 829 829 829 830 831 831 832 833 833 833 833 834 834 833 833 833 833 833 832 832 831 830 828 827 828 827 827 828 828 827 826 826 826 826 825 823 821 820
713 717 721 725 728 732 734 738 741 745 748 752 756 759 762 765 769 772 774 777 779 781 784 786 788 790 792 794 796 797 799 800 801 803 806 808 811 813 816 818 819 819 820 821 823 824 825 826 826 826 827 827 828 829 830 831 831 831 831 831 830 830 830 829 829 829 828 828 827 825 825 825 825 825 825 826 825 824 824 824 824 823 821 819 818
710 714 718 721 725 728 731 735 738 742 745 749 752 755 758 762 765 769 771 774 776 779 781 783 785 787 789 791 793 794 795 796 798 800 802 805 808 811 813 815 815 816 817 818 820 821 822 823 823 823 824 824 825 825 826 828 829 829 829 829 828 828 827 826 826 825 825 825 824 823 822 822 823 823 823 823 823 822 821 821 821 820 819 818 816
706 710 713 717 721 725 728 732 735 738 742 744 747 751 754 757 761 765 768 770 773 775 777 779 781 783 785 787 789 790 792 793 795 797 799 802 805 808 810 811 812 813 814 815 817 817 818 819 820 820 821 821 821 822 823 825 826 827 827 827 826 825 825 824 823 822 822 822 821 820 820 820 820 821 821 821 821 821 819 818 818 818 817 816 814
702 706 709 712 716 721 725 728 731 735 738 740 743 747 750 754 757 761 764 766 768 771 774 776 778 779 781 783 784 787 788 790 791 793 795 798 801 804 806 808 809 810 811 812 813 814 814 815 816 817 817 817 818 819 820 821 823 824 824 824 824 823 822 822 821 820 819 819 818 818 818 818 818 818 818 818 819 819 817 816 816 816 815 814 812
697 701 705 709 713 717 722 725 728 731 734 737 740 743 746 750 753 757 760 762 765 767 770 772 774 775 777 779 781 783 784 785 787 789 791 794 797 800 803 805 806 807 808 809 810 810 811 811 812 812 813 814 815 816 816 817 819 820 821 821 821 820 820 820 820 819 818 817 817 817 817 817 817 816 815 816 816 816 815 814 814 814 813 811 810
693 698 702 706 710 714 717 721 724 727 731 734 737 740 743 746 750 753 756 759 761 764 766 768 770 772 774 776 777 779 780 781 783 784 787 790 792 796 799 800 802 803 804 805 806 806 807 807 807 808 809 810 811 812 813 814 815 816 818 818 818 818 818 818 817 816 816 816 816 816 815 815 814 814 814 814 814 814 813 812 811 811 810 809 808
691 696 700 703 706 710 713 717 720 724 728 732 735 738 740 743 746 749 752 755 757 760 762 764 766 768 770 772 773 775 776 777 779 780 783 786 788 792 794 796 798 799 800 801 802 802 802 803 803 803 804 806 807 808 809 810 811 812 814 814 815 815 815 815 814 814 814 814 814 814 813 813 813 813 813 813 813 812 811 810 810 810 809 808 807
690 693 696 700 703 706 710 713 717 721 725 728 732 734 737 740 742 745 748 751 753 756 758 760 762 764 766 768 769 771 772 774 775 777 779 782 784 787 790 792 794 796 796 797 797 797 798 798 799 799 800 801 803 804 805 806 807 808 809 811 812 813 813 813 812 812 812 812 812 812 813 813 813 813 812 812 812 811 811 810 810 809 809 808 808
687 690 694 697 699 703 706 710 714 718 721 725 728 731 734 736 739 742 745 747 750 753 755 758 760 761 763 764 766 768 770 771 772 774 776 779 781 783 786 788 790 792 792 793 793 793 794 794 795 796 797 798 800 801 802 803 804 805 806 808 809 810 810 810 810 810 810 811 811 812 812 812 811 811 810 811 811 810 810 809 809 809 808 808 807
685 688 691 694 697 700 704 707 711 715 718 721 725 728 731 733 736 739 742 744 747 750 752 755 757 758 760 761 763 765 767 768 769 771 773 775 777 779 782 784 786 788 789 789 790 790 790 791 792 793 794 795 797 798 800 801 801 802 803 805 806 806 806 807 808 808 809 810 811 811 810 810 809 809 809 809 809 809 808 808 808 808 808 807 806
684 686 689 691 694 697 701 705 708 711 715 718 721 724 727 730 732 735 738 741 744 746 749 752 754 755 757 758 759 761 763 765 766 767 769 772 773 776 778 779 781 783 785 786 787 787 787 788 789 790 792 793 795 796 797 798 800 800 801 802 802 803 803 804 805 806 807 808 808 808 808 807 807 807 808 808 808 807 806 807 807 807 806 805 805
683 685 687 689 692 695 698 702 705 709 712 716 719 721 724 726 729 732 735 737 740 742 745 747 750 752 753 754 756 757 759 761 762 763 765 767 769 771 773 775 777 779 781 783 784 785 785 787 788 789 791 792 793 794 795 796 797 798 798 799 799 800 801 802 803 804 805 805 805 805 805 806 806 807 807 807 807 806 806 805 805 805 804 803 802
682 684 686 688 690 693 695 698 702 706 709 713 716 719 721 723 725 728 730 733 735 738 741 743 745 747 749 750 752 753 755 757 758 759 760 763 764 766 768 770 772 775 777 780 782 784 785 786 787 788 789 790 791 791 792 793 794 795 796 796 797 799 799 799 800 801 802 803 803 804 804 805 805 805 807 807 807 806 805 805 804 804 803 802 801
680 682 684 686 688 691 693 696 700 703 706 710 712 715 717 720 722 724 726 728 731 733 736 738 740 742 744 746 748 750 751 752 754 755 756 757 760 762 764 766 768 770 773 777 780 783 784 784 785 786 787 787 788 788 789 791 792 793 794 795 796 797 796 796 798 799 800 801 801 802 803 803 803 804 805 805 805 804 804 804 803 803 802 802 801
679 681 683 684 687 689 691 694 697 700 703 706 708 710 713 715 718 721 723 725 727 729 731 734 736 738 740 742 744 746 747 748 750 751 752 754 756 758 760 762 765 767 770 774 777 780 781 781 781 782 783 784 785 786 787 789 791 792 793 794 794 794 794 795 796 797 798 798 799 800 801 800 801 801 802 802 803 803 803 803 803 803 802 802 802
676 678 680 681 683 685 688 691 694 697 699 702 705 707 710 713 715 717 720 722 724 726 728 730 733 735 737 739 740 742 744 745 747 749 750 752 754 756 758 760 762 764 767 770 774 776 777 777 777 778 780 781 782 783 784 786 788 790 790 791 792 792 792 793 794 794 795 796 797 798 799 799 800 800 801 801 802 802 802 802 803 802 802 802 801
673 674 676 677 679 682 684 686 690 693 695 698 702 706 709 712 714 716 718 720 722 725 726 728 731 733 734 735 737 740 742 743 745 747 748 750 753 754 756 758 760 761 763 767 770 772 772 773 774 775 776 777 778 779 780 782 785 786 787 788 790 790 791 792 793 793 795 797 798 798 799 799 800 801 802 802 802 802 802 802 802 802 801 801 801
670 671 672 674 676 679 681 683 687 690 692 695 699 703 707 710 713 715 717 719 721 723 725 727 729 731 732 734 736 738 740 742 744 746 747 749 751 753 754 756 758 760 762 765 767 769 769 770 771 771 772 774 775 776 777 779 781 784 785 786 788 790 791 791 792 794 797 801 803 803 800 799 799 799 800 801 801 801 801 801 801 801 801 801 800
668 669 670 672 674 677 679 681 685 688 690 693 697 700 704 707 711 714 717 719 720 722 724 726 728 730 731 733 735 737 739 741 743 745 747 749 750 752 754 755 758 760 761 763 766 767 767 767 767 768 769 770 772 774 775 777 779 782 784 786 787 789 789 790 791 792 795 799 803 804 802 800 798 797 798 799 798 799 800 800 800 800 800 800 799
668 668 668 670 673 675 677 680 684 686 689 692 695 697 701 704 707 711 714 718 720 722 724 725 727 728 730 732 734 736 737 739 742 744 746 748 749 751 752 754 757 759 760 762 764 765 765 764 765 765 767 768 770 772 773 775 778 782 784 785 786 787 787 788 790 792 792 794 797 799 799 799 797 796 797 798 798 799 799 800 800 800 800 800 799
668 668 668 670 672 675 677 680 683 685 688 691 693 696 699 701 704 707 711 714 717 720 723 724 725 727 729 730 733 735 736 738 740 742 744 746 747 749 751 753 756 758 760 761 762 763 763 763 764 765 767 768 769 771 773 776 780 782 784 785 785 785 786 788 791 792 791 792 794 796 798 798 797 797 798 798 799 800 800 799 800 800 800 800 800
668 669 669 671 672 675 678 680 683 686 688 690 692 694 697 700 703 706 709 712 715 718 721 723 724 726 728 729 731 733 735 737 739 741 743 745 746 748 750 753 755 757 759 760 761 762 763 763 764 766 768 769 771 773 775 778 780 782 784 784 784 786 790 793 794 795 794 794 795 796 798 798 797 797 798 798 799 799 799 799 800 800 800 800 800
671 671 672 673 675 676 679 681 683 685 687 689 691 693 696 700 703 705 708 712 715 717 720 722 724 725 727 729 731 732 734 737 739 741 744 745 746 748 750 752 754 756 758 760 761 762 763 764 765 767 769 771 773 775 776 778 780 782 783 783 784 787 791 792 793 795 796 796 796 798 798 797 797 797 798 798 798 799 799 799 799 799 800 800 800
675 675 675 676 677 678 681 683 684 685 687 689 691 694 696 700 703 706 709 712 714 717 719 722 723 724 727 729 731 732 734 738 741 743 745 747 748 748 749 751 754 756 757 760 761 762 764 766 767 769 770 771 773 775 778 779 780 781 782 783 784 786 789 789 791 793 795 796 797 797 797 797 797 797 798 798 798 798 799 799 799 799 799 799 799
679 679 679 679 679 680 683 685 685 686 688 690 693 696 698 701 704 707 709 712 713 716 718 721 723 725 726 728 730 732 735 739 741 744 746 748 749 750 750 752 754 756 758 760 761 763 765 767 769 771 772 773 775 777 779 779 780 780 782 784 786 787 790 791 792 794 795 796 795 795 796 796 796 797 798 798 797 797 798 799 799 799 799 798 798
683 683 682 681 681 683 685 686 686 688 691 694 697 699 701 703 705 707 709 711 713 715 718 721 724 726 728 729 729 731 735 738 741 744 746 748 750 752 753 754 756 758 759 761 762 764 766 767 769 772 774 775 777 778 778 779 781 782 784 786 787 789 790 791 792 793 794 794 793 794 795 796 796 796 797 797 797 797 798 799 798 798 797 797 797
687 687 687 686 686 687 688 688 690 692 696 699 701 702 703 704 706 707 709 710 713 716 719 722 724 727 728 730 730 731 734 738 741 744 746 749 751 754 755 756 758 760 762 763 765 766 767 768 770 772 774 776 777 778 779 781 783 785 786 787 788 789 789 790 791 792 793 793 792 793 794 795 795 796 796 796 796 797 797 797 796 796 796 795 795
692 692 691 691 691 693 694 694 694 695 698 701 704 705 706 706 707 708 710 712 715 718 721 723 726 728 730 730 731 733 736 739 742 744 747 751 754 756 757 758 760 762 763 765 766 768 769 770 771 772 774 776 778 779 780 783 785 786 788 788 789 789 789 790 791 792 792 792 793 793 794 794 795 795 795 796 796 796 795 795 794 794 794 794 794
697 696 695 694 694 696 699 700 699 698 700 703 707 709 710 710 711 712 714 717 719 722 724 726 728 730 731 732 733 736 740 742 745 747 750 753 755 757 758 760 761 763 765 767 768 770 771 772 773 775 777 779 781 782 784 786 787 788 790 791 791 791 791 791 792 793 793 793 794 794 794 794 795 795 795 796 796 795 794 793 793 793 793 793 793
699 699 699 698 696 696 699 702 703 703 703 706 709 711 714 717 719 721 722 725 725 725 726 728 730 731 733 736 737 740 743 746 748 750 752 754 756 758 760 761 763 765 767 769 770 771 773 774 775 777 780 782 784 785 786 787 788 789 791 792 792 792 792 792 793 794 795 795 795 795 795 795 796 796 795 794 794 793 793 793 793 793 792 792 792
700 700 701 702 701 699 699 703 707 708 708 710 712 714 716 719 723 727 730 733 734 732 731 731 732 734 736 739 741 743 746 748 750 752 754 755 757 759 760 762 764 766 768 770 772 773 775 776 778 779 781 783 784 786 787 788 788 789 790 791 791 792 793 794 794 795 795 796 797 797 797 796 796 796 795 794 794 793 793 792 792 791 791 790 790
702 700 700 702 704 704 704 706 709 712 713 713 715 718 719 721 725 730 733 736 740 741 739 736 736 737 738 740 743 745 747 749 750 752 754 756 757 759 761 763 765 767 769 772 773 775 776 778 779 780 782 783 785 786 788 788 789 789 790 791 792 793 793 794 794 794 795 796 796 796 797 797 797 796 796 795 795 794 793 793 792 791 790 790 789
706 703 700 701 704 708 710 710 712 716 718 718 718 721 723 724 728 733 736 737 741 745 745 743 742 743 743 744 745 746 747 749 751 753 755 756 758 759 762 765 767 769 771 773 775 776 778 779 780 781 783 785 786 787 788 788 789 790 791 792 792 793 793 794 794 794 795 795 795 796 796 796 796 796 796 796 795 794 793 793 792 791 790 789 788
708 706 704 703 706 711 716 718 718 721 723 724 723 723 726 729 732 736 738 739 742 747 749 748 748 749 751 751 750 749 749 750 752 755 756 758 760 762 765 767 769 771 773 775 777 779 780 782 783 785 786 788 788 789 790 790 791 792 792 793 793 793 793 794 794 794 795 795 795 796 796 796 797 796 796 795 795 794 793 792 791 790 789 788 786
710 710 710 709 710 714 719 724 725 726 727 728 728 728 731 734 736 739 741 742 744 747 750 749 749 752 756 757 757 755 754 754 755 757 759 761 763 766 768 769 771 773 776 778 780 782 784 786 787 789 790 791 792 792 792 793 793 793 793 793 793 794 794 794 794 794 795 795 795 796 797 797 797 796 796 795 795 794 793 792 790 789 788 786 785
713 714 715 716 717 719 723 727 729 730 730 731 732 733 736 738 741 743 745 746 747 750 751 750 750 753 756 758 760 761 761 760 759 760 762 765 768 770 772 773 774 777 779 781 783 785 787 789 790 792 793 793 794 794 794 794 794 794 794 794 795 795 795 795 795 795 795 795 795 796 797 797 797 796 796 795 794 793 792 791 790 789 787 786 784
717 718 720 721 723 725 727 729 731 733 734 735 736 738 741 743 745 748 750 751 753 754 754 753 753 755 757 758 760 763 765 764 763 764 766 769 771 773 775 777 778 780 783 784 786 788 790 792 793 794 795 795 796 796 796 796 796 796 796 796 796 796 795 795 795 795 795 795 795 796 797 797 797 796 796 795 795 794 792 791 790 789 787 786 784
Wind_Speed
33 33 32 31 30 31 30 30 28 27 25 25 24 24 24 23 23 22 21 21 21 22 22 22 22 22 20 20 19 19 19 18 17 17 16 15 14 13 12 13 13 11 11 11 11 10 10 10 10 10 9 9 9 9 9 9 9 9 9 9 9 9 10 10 10 10 11 11 11 12 11 11 12 12 13 15 16 18 20 20 21 22 23 24 24
34 33 33 32 32 32 32 31 30 28 27 26 26 25 24 24 23 22 22 22 22 22 23 22 22 22 21 21 20 20 19 19 18 18 17 16 16 14 13 14 14 13 12 12 12 11 11 11 11 11 10 11 11 11 10 10 10 11 11 10 10 10 10 11 11 11 11 11 11 13 12 12 14 14 15 17 18 18 18 19 21 22 23 25 25
34 33 32 32 33 32 32 31 30 30 29 28 27 26 25 24 24 23 23 23 22 23 23 23 22 22 22 21 21 20 20 20 19 18 18 18 17 16 15 15 15 15 14 13 13 13 12 12 12 12 11 12 12 12 12 11 11 11 11 10 11 11 11 11 12 12 13 12 12 13 13 13 14 16 16 17 19 19 19 21 21 21 22 23 24
34 33 33 33 33 32 32 31 31 31 30 29 28 28 26 25 25 24 24 24 23 23 23 22 23 23 22 22 21 21 21 21 20 19 19 19 18 18 17 16 16 16 16 15 14 14 13 13 13 13 12 13 13 13 12 12 11 11 12 11 12 12 12 12 13 13 13 13 13 13 14 14 16 17 17 18 19 19 20 21 20 20 20 21 22
34 33 33 33 33 33 33 32 32 32 32 30 29 29 28 27 26 25 25 25 24 24 23 23 23 23 23 23 22 22 22 21 21 20 20 19 19 19 18 17 17 17 16 16 15 15 15 15 14 14 14 14 14 13 13 13 12 12 12 12 12 13 12 13 13 14 14 14 14 14 14 15 17 18 17 17 17 17 18 19 19 19 20 21 21
34 34 33 33 34 34 34 33 33 33 33 31 30 30 29 28 27 26 26 26 26 25 24 24 23 24 24 23 23 23 22 22 21 20 20 20 19 19 18 18 18 17 17 17 16 16 16 16 15 15 15 15 14 14 14 13 13 13 13 13 13 12 12 13 13 14 15 15 15 15 15 16 17 17 17 16 16 16 17 18 18 17 18 19 19
35 34 33 33 34 35 35 35 34 34 33 32 30 30 29 29 28 27 26 26 26 26 25 24 24 24 24 24 23 23 23 22 22 21 20 20 20 20 19 19 18 18 18 18 18 18 17 17 17 16 16 16 15 15 14 14 14 14 14 13 13 13 13 13 13 14 14 15 15 16 16 15 15 17 17 15 16 16 17 18 18 17 16 18 19
35 35 34 33 34 35 36 35 34 33 33 32 31 29 29 29 28 27 26 26 27 27 26 25 24 24 24 24 23 23 23 22 22 22 21 21 20 20 19 19 19 19 18 18 18 18 18 18 18 18 18 18 17 16 15 14 14 14 14 13 13 13 13 13 13 13 14 15 15 15 15 15 15 17 17 16 16 17 17 17 18 19 19 19 18
35 35 34 34 34 35 34 33 33 33 32 32 31 30 29 29 28 27 27 26 26 26 26 26 25 24 24 24 24 23 23 23 23 23 22 22 21 20 20 20 19 19 18 18 18 18 18 18 18 18 18 19 19 19 18 16 15 14 13 13 13 13 14 13 13 13 14 15 16 16 15 15 15 16 16 16 17 17 17 17 18 19 20 20 19
34 34 34 34 33 33 33 32 33 33 33 33 32 31 29 29 29 28 28 26 26 26 26 26 26 25 24 24 24 24 23 24 25 26 25 23 22 21 20 20 20 19 19 18 18 18 18 18 18 18 18 18 19 20 21 21 20 18 15 13 12 12 13 14 14 14 15 15 16 16 15 16 15 16 16 16 16 18 19 18 17 17 17 18 19
34 34 34 33 32 32 33 32 32 33 34 33 33 32 30 29 29 29 28 27 26 26 26 27 26 25 25 25 24 24 24 24 26 29 28 26 24 21 20 20 20 20 19 19 18 18 18 19 18 18 18 19 20 21 24 25 25 24 23 20 19 17 16 16 15 15 15 17 18 17 16 17 16 16 16 16 17 19 18 17 16 16 15 15 17
33 32 31 31 32 33 33 32 32 33 33 33 33 32 31 29 29 29 29 28 27 26 26 27 27 25 25 25 25 24 24 25 27 30 31 30 28 23 20 20 20 20 20 20 19 19 19 19 19 18 18 18 20 21 24 26 26 26 25 24 23 22 22 22 21 19 18 18 19 19 18 18 17 16 15 16 17 17 16 15 15 17 17 16 18
31 31 30 30 32 33 33 33 32 32 33 32 32 32 31 30 29 30 29 28 27 27 26 26 26 26 25 25 25 24 24 25 28 30 31 32 31 28 23 20 20 20 20 20 20 20 19 19 19 18 18 18 18 19 20 21 21 22 21 21 21 21 21 23 24 25 25 23 21 21 19 18 17 16 14 16 18 18 16 16 15 16 18 18 20
30 31 30 30 31 32 32 32 32 32 32 31 31 32 31 30 29 29 29 28 27 27 27 26 26 26 25 24 24 24 24 25 28 30 31 31 32 31 27 21 19 20 20 19 20 20 19 19 19 18 18 18 18 18 18 18 17 17 18 19 20 21 20 20 20 22 25 27 27 27 24 22 21 20 19 18 18 16 14 14 14 15 19 21 22
30 31 30 30 31 32 32 32 31 31 32 31 31 31 31 30 29 28 28 28 28 27 27 26 26 26 26 25 24 23 24 25 27 29 31 30 30 32 30 23 19 19 19 19 19 19 19 19 18 18 18 18 18 19 18 17 15 15 16 16 18 18 18 19 19 19 20 23 26 27 26 25 23 21 20 18 16 17 18 16 15 17 20 21 22
30 31 31 31 31 32 32 32 31 31 32 32 31 31 31 30 30 28 27 27 26 25 25 26 26 26 26 26 25 24 23 24 25 27 29 29 29 30 30 25 21 19 18 18 19 19 19 19 19 19 19 19 20 21 20 18 15 14 15 15 16 16 17 18 20 21 21 21 23 24 24 23 21 19 19 18 19 21 23 21 19 18 19 18 18
31 32 32 32 32 33 32 32 31 31 32 32 31 31 30 30 29 28 26 26 26 25 25 25 25 25 26 26 26 25 24 25 25 26 27 27 28 29 29 24 21 21 19 19 19 20 20 21 20 19 20 20 20 21 22 21 18 16 15 15 16 16 17 17 19 21 23 22 23 24 23 22 23 23 23 23 22 21 22 21 19 17 16 14 14
32 33 33 33 33 33 33 32 32 32 32 32 31 30 29 29 29 28 27 26 26 26 25 24 24 25 26 27 27 26 25 27 28 28 28 28 28 29 27 23 21 20 19 19 19 20 21 23 23 22 21 21 21 21 22 22 20 18 17 16 16 17 17 16 17 19 21 22 23 24 25 25 26 26 26 25 22 20 21 21 20 18 17 15 14
34 34 34 33 32 33 33 32 31 31 31 31 30 30 29 28 27 27 26 26 26 25 25 24 24 25 25 26 27 27 26 27 30 30 30 30 31 29 26 22 20 19 19 19 19 20 21 23 25 27 26 23 22 21 22 22 21 18 17 16 16 16 16 15 15 15 15 16 18 19 20 21 21 21 22 21 20 20 20 20 18 16 16 15 15
34 33 32 32 31 32 32 32 31 31 30 30 29 28 28 26 26 26 26 25 25 25 25 24 24 24 24 25 27 27 26 26 29 31 32 33 33 32 27 22 21 20 19 19 19 19 21 22 24 28 30 28 27 26 25 25 23 19 17 16 16 15 14 13 12 10 8 9 11 12 13 14 14 16 18 18 17 16 16 17 16 14 13 13 12
32 31 31 31 31 31 31 31 31 30 29 29 28 27 27 26 26 26 25 24 24 24 25 25 24 24 24 24 25 26 27 26 27 30 32 33 34 34 29 23 21 20 19 19 19 19 20 21 22 24 27 28 28 28 28 29 28 25 21 18 17 16 15 13 12 10 9 10 11 13 13 14 15 16 16 16 14 13 13 15 16 14 13 12 12
31 31 31 31 31 31 30 30 30 29 28 28 27 26 26 26 26 25 24 24 24 23 24 24 23 23 23 23 23 24 25 26 26 27 30 32 33 34 31 26 22 21 19 19 20 20 20 20 20 22 23 23 23 23 23 25 28 29 27 24 22 20 19 18 16 13 12 12 12 14 15 16 15 15 15 14 13 11 10 11 11 11 11 12 13
31 30 30 30 30 29 29 30 29 27 27 28 27 26 26 25 25 25 24 23 22 22 22 22 22 22 21 22 22 21 22 25 27 28 28 29 32 33 33 29 25 23 21 20 20 20 20 20 20 20 21 21 20 19 19 20 22 25 25 23 22 21 21 20 17 13 12 13 14 14 15 15 14 14 13 12 10 8 8 9 10 11 13 14 14
30 29 29 30 29 28 28 29 28 27 26 28 27 26 26 25 24 24 23 22 21 21 21 20 20 21 20 20 21 21 20 21 26 28 28 28 30 31 32 32 29 27 23 20 19 19 19 20 20 21 21 21 19 18 18 18 18 19 18 17 17 18 19 17 14 13 13 13 13 12 12 12 11 10 10 9 8 8 9 10 11 12 14 16 16
28 28 28 28 28 27 27 27 27 26 25 27 27 26 26 25 24 23 23 22 21 21 21 21 20 20 20 19 19 20 20 20 23 27 28 28 29 30 31 31 32 32 28 22 19 18 17 16 16 16 17 18 18 17 17 16 15 15 14 14 15 16 16 13 12 13 12 10 10 11 11 9 8 7 7 7 7 8 7 8 10 12 13 14 15
26 26 27 27 27 26 26 25 25 25 25 25 25 25 25 24 23 23 23 22 22 21 21 21 21 20 19 19 19 19 20 20 21 24 28 30 29 30 31 31 32 34 32 27 22 18 15 13 11 10 11 14 15 15 15 14 14 14 14 15 15 14 14 13 11 11 11 10 10 10 8 5 5 5 6 7 7 6 4 6 9 11 11 12 14
24 24 24 25 25 25 25 24 24 23 24 24 22 22 23 23 23 23 23 23 22 21 21 21 21 21 20 19 19 19 20 20 19 21 27 31 31 30 31 32 32 34 36 34 28 21 16 14 13 11 11 13 15 15 15 15 14 14 15 16 14 12 13 13 11 10 11 11 10 8 4 3 4 5 6 6 5 4 4 6 8 9 10 11 13
23 23 23 23 23 24 24 24 23 22 23 22 21 22 23 23 23 23 24 23 22 22 22 22 22 21 20 20 19 18 19 20 20 20 24 30 33 32 31 33 34 36 37 35 30 23 18 16 16 15 14 14 15 15 15 15 14 14 14 14 13 12 12 12 12 12 11 10 9 8 6 4 5 5 5 5 4 3 4 6 7 8 9 10 11
22 22 22 22 22 22 22 23 22 22 21 20 19 19 21 23 22 22 23 24 23 23 22 22 22 22 20 19 19 19 19 22 23 22 22 25 28 29 30 32 33 34 34 33 27 22 19 18 17 17 17 17 16 16 16 16 16 15 14 15 15 13 12 12 12 14 13 12 11 9 7 7 7 6 5 4 3 4 4 5 6 7 7 8 9
22 22 22 22 22 22 22 22 22 22 21 20 19 18 17 18 19 20 22 25 25 24 22 21 21 21 20 19 21 21 20 21 23 23 22 22 23 23 24 25 26 28 32 31 26 22 23 23 20 20 21 20 19 18 17 16 16 16 16 16 16 14 14 15 15 14 13 12 10 8 6 5 4 3 3 3 3 5 5 5 5 5 6 7 8
22 22 21 21 22 22 21 21 22 22 20 20 20 18 16 15 15 16 19 23 24 23 22 20 20 21 20 20 21 19 16 17 19 20 20 21 22 22 20 18 19 22 28 31 28 24 23 23 21 21 22 21 20 20 18 17 17 17 16 16 14 13 15 16 13 9 9 8 8 7 6 5 4 4 4 4 4 4 4 3 4 4 5 6 7
21 21 20 18 20 22 21 19 21 22 19 20 22 19 16 14 12 11 14 18 20 21 21 19 17 18 17 18 19 18 16 16 17 17 19 20 21 20 18 16 17 18 21 26 26 22 22 23 21 21 22 21 20 19 18 18 18 16 14 13 12 11 11 11 8 6 4 2 4 4 4 3 3 3 3 3 2 2 1 1 2 3 5 6 6
19 20 20 18 15 16 18 19 20 21 19 19 20 20 18 16 14 12 12 13 15 17 18 17 15 14 13 13 15 16 16 17 16 16 17 18 18 17 15 16 18 18 19 23 22 19 20 20 18 17 18 17 14 14 15 16 15 12 11 11 11 10 9 10 10 9 6 4 5 4 4 3 2 1 1 1 1 1 2 3 3 3 5 7 8
15 14 16 18 15 13 15 16 17 20 20 18 18 19 19 18 17 16 14 12 12 12 13 14 15 15 14 14 14 14 15 16 16 15 15 16 16 17 17 18 20 20 20 20 17 15 15 14 12 12 14 14 12 13 15 16 13 12 11 10 10 10 10 10 10 9 8 7 7 5 4 5 3 1 1 2 2 2 3 4 4 4 6 7 9
11 9 10 14 16 15 15 14 13 15 18 18 17 18 17 16 17 18 16 14 13 11 9 10 12 14 15 15 14 14 15 15 14 14 15 16 17 18 18 17 17 18 16 13 11 10 10 10 11 11 12 13 14 15 15 15 12 10 9 8 8 8 7 7 7 7 7 6 6 6 5 4 3 2 2 2 2 3 4 4 5 5 5 7 9
6 7 8 10 13 15 16 15 14 14 16 16 15 15 14 13 14 16 15 13 13 12 11 11 12 12 13 14 15 14 14 15 15 15 16 16 17 17 17 15 15 14 12 9 8 8 9 9 9 8 10 12 14 14 13 13 12 9 7 7 8 7 6 4 5 6 6 5 5 5 4 4 3 3 4 3 3 4 4 4 5 5 5 6 8
13 10 7 6 7 12 13 13 13 14 15 15 13 13 15 14 14 15 16 13 13 14 14 14 14 14 13 13 14 15 15 15 15 16 17 18 18 16 15 15 14 13 11 9 9 10 10 10 11 12 12 14 14 13 12 12 11 10 9 9 10 11 10 9 8 6 5 5 5 4 4 5 3 3 4 4 4 4 4 4 5 5 4 5 7
17 16 13 9 6 8 9 9 10 12 13 13 13 14 15 15 14 15 16 15 15 16 15 14 15 18 19 19 19 21 21 21 21 20 19 18 17 15 15 16 15 15 15 14 13 14 14 14 14 14 13 14 15 14 12 11 12 12 11 10 10 11 11 10 9 7 6 7 6 5 4 4 4 3 4 4 4 4 4 4 5 6 5 6 7
16 16 13 12 12 10 6 4 7 10 11 10 12 14 15 16 15 16 17 17 17 18 17 16 16 16 19 24 29 29 26 24 22 20 17 16 15 15 16 17 16 16 17 16 16 16 16 16 15 13 12 12 13 13 12 11 11 11 9 8 7 7 7 8 8 7 6 7 8 7 5 5 5 4 4 5 6 5 5 5 6 6 8 9 9
15 16 15 14 13 12 11 10 8 8 9 10 11 13 15 16 17 17 18 19 20 19 18 18 17 17 20 26 31 28 22 20 19 18 17 17 16 16 17 17 17 17 17 16 16 16 16 15 15 13 10 9 9 10 11 11 10 9 8 8 8 8 8 8 8 7 7 8 8 6 6 7 6 6 6 7 5 4 5 7 8 8 9 10 10
14 17 17 15 15 15 15 17 16 11 8 8 10 13 15 16 17 19 19 20 21 21 18 16 17 19 20 22 23 22 20 19 19 18 18 18 17 17 17 17 18 17 16 16 17 16 15 14 13 12 11 10 10 10 10 9 9 9 8 8 8 8 7 8 7 6 6 8 8 6 7 8 6 6 8 6 3 2 7 10 10 9 10 11 11
12 13 14 13 14 15 16 18 19 17 13 11 8 7 10 14 16 17 18 18 19 19 18 18 20 20 19 19 21 21 20 20 19 19 20 19 18 17 18 18 18 17 15 15 15 15 14 13 12 11 11 12 13 13 11 8 7 7 6 6 5 3 2 4 6 4 2 4 6 4 4 5 4 4 7 7 7 8 10 10 10 10 11 11 12
14 13 13 14 15 16 16 17 19 20 20 20 19 17 15 14 15 17 18 18 18 18 18 20 23 24 23 23 24 22 19 18 19 19 19 19 18 18 17 17 17 17 15 14 14 13 14 14 14 12 12 11 11 11 9 8 6 5 5 4 3 2 5 5 2 1 2 4 5 4 5 4 5 6 8 10 12 12 11 10 10 11 12 12 13
16 15 15 16 18 20 21 20 21 21 22 22 23 24 23 21 19 17 16 15 16 19 20 20 22 24 24 22 21 19 18 19 19 19 20 20 20 20 19 18 18 18 17 16 15 15 15 16 15 15 14 12 11 9 8 8 8 7 6 6 6 6 7 8 6 4 3 3 4 6 6 6 7 9 10 11 11 12 13 13 12 12 13 13 14
15 15 15 16 19 23 24 22 20 21 21 21 22 25 26 25 23 21 18 15 14 16 20 21 21 22 21 19 18 19 20 20 20 21 21 21 21 21 20 19 18 18 17 17 16 16 16 16 16 16 15 13 12 11 11 11 11 11 9 9 8 7 6 5 3 2 2 3 4 5 5 5 7 9 10 10 11 12 13 14 14 14 14 14 14
16 16 17 17 18 20 20 19 18 19 20 21 22 24 26 26 25 23 21 19 15 13 15 18 19 19 20 19 19 19 20 20 20 20 20 20 20 20 19 19 19 19 18 17 17 18 18 18 18 17 16 15 14 14 14 14 14 12 11 10 9 8 6 5 3 2 1 2 4 5 7 7 7 8 9 10 11 12 13 14 15 16 16 16 16
18 17 18 19 18 18 18 19 19 19 18 19 22 24 25 26 26 24 23 22 19 16 14 16 17 17 17 18 19 20 21 20 20 20 20 21 20 20 20 19 19 19 19 18 19 19 19 19 19 19 18 17 16 15 15 15 14 13 12 12 11 10 9 7 7 6 6 5 5 5 6 7 8 8 9 10 11 11 13 14 15 16 17 17 17
22 22 23 22 20 18 17 17 19 18 16 16 19 21 22 23 24 22 22 24 23 20 18 19 20 19 17 16 18 21 23 22 21 21 21 21 21 21 21 21 21 21 21 20 20 20 20 19 19 18 18 17 16 16 15 15 14 14 14 13 12 12 11 10 9 9 8 8 7 7 7 7 7 8 10 10 11 11 12 13 14 15 15 16 17
23 25 26 26 24 21 18 16 16 17 17 17 18 19 19 19 20 20 21 24 25 23 22 22 22 21 19 18 18 20 21 22 22 22 22 22 21 21 21 22 23 23 23 21 20 20 19 18 17 17 16 16 16 16 15 15 15 15 15 14 13 12 11 10 10 10 9 8 8 7 8 8 8 9 10 10 11 11 11 12 13 14 14 15 15
24 26 27 28 27 26 24 21 19 18 18 18 19 19 18 17 17 17 18 20 21 21 20 21 23 23 22 21 20 20 20 21 22 22 21 21 20 20 21 21 22 22 20 19 18 17 17 16 16 16 16 15 15 16 16 15 15 15 14 13 12 11 10 9 10 9 9 9 9 8 8 9 9 10 10 10 10 11 11 11 12 13 14 14 15
23 26 26 26 26 26 26 25 24 23 21 19 19 19 18 17 16 15 15 16 16 15 16 18 20 22 23 23 23 21 20 21 22 22 21 20 20 20 20 20 20 19 18 18 17 16 15 15 14 14 15 15 15 15 14 14 14 13 12 10 10 9 9 9 10 9 8 9 10 10 10 10 9 10 10 10 10 11 11 12 12 13 13 13 14
Wind_Direction
186 185 185 186 185 185 188 189 191 194 194 195 198 200 199 199 200 201 200 199 198 196 195 195 195 196 198 201 202 200 199 199 200 200 204 208 212 215 213 210 213 217 220 224 227 228 228 231 233 231 230 233 237 241 240 235 232 236 240 238 237 237 234 241 253 264 273 275 274 277 278 275 270 263 259 258 258 260 265 271 275 276 276 274 272
187 186 185 185 186 186 187 188 189 192 193 194 196 198 198 198 199 199 199 198 197 197 197 197 197 197 198 200 201 200 199 198 199 198 201 205 208 212 213 210 211 214 217 221 225 228 228 230 232 232 231 233 237 240 240 239 236 235 236 235 238 241 238 239 250 263 271 272 273 274 274 271 270 266 261 259 260 261 261 264 268 271 273 275 274
187 185 184 185 186 186 187 188 189 191 193 194 196 197 197 197 197 198 199 198 198 199 199 199 198 198 198 199 199 200 198 197 199 199 200 203 207 210 212 211 212 214 217 219 222 225 227 229 232 233 233 233 236 240 242 243 243 244 244 242 242 245 245 243 245 257 268 274 275 276 276 273 269 267 264 262 263 263 263 263 264 265 266 269 272
187 185 185 185 185 185 186 188 190 192 194 196 197 199 199 198 197 198 200 200 200 200 201 201 199 198 199 199 197 199 198 197 199 201 201 203 206 209 211 212 213 215 218 221 222 224 226 229 231 232 233 235 236 238 242 243 244 247 249 248 248 249 249 249 247 251 261 270 272 273 276 274 271 269 267 266 266 266 265 267 270 270 270 273 275
187 186 186 186 185 186 187 189 191 193 195 197 198 200 200 200 199 199 201 202 202 201 201 202 201 198 199 199 198 198 198 198 199 201 202 204 206 209 211 212 214 216 218 221 222 223 226 229 230 230 231 233 235 237 240 242 243 245 248 248 249 249 249 250 250 250 254 262 268 271 271 271 270 269 267 267 270 270 269 271 273 274 277 279 281
186 186 187 187 186 187 188 190 192 193 195 198 199 200 201 202 200 200 202 203 203 202 201 202 202 201 200 199 198 198 198 199 200 202 204 205 207 209 211 212 214 216 218 220 222 223 226 229 230 230 230 231 234 236 239 242 243 244 246 247 247 249 250 249 249 251 254 260 265 268 269 269 270 270 268 267 269 273 277 279 279 278 279 283 287
185 185 187 188 188 188 189 191 192 194 196 198 199 200 201 202 201 200 201 203 204 203 201 201 201 201 200 200 199 198 198 199 200 201 205 206 207 209 211 212 214 217 218 221 223 224 225 229 230 230 230 232 234 237 238 240 242 243 244 245 248 250 251 252 252 253 257 261 263 265 267 268 268 271 273 271 270 274 280 284 286 287 288 290 291
185 184 186 188 189 190 191 191 191 193 194 197 199 199 200 201 201 200 200 202 204 204 203 201 200 201 201 201 200 199 198 200 201 200 203 206 207 208 210 212 213 216 219 222 224 226 227 229 231 232 231 232 233 236 238 239 240 243 242 242 244 247 250 255 257 256 258 262 264 265 268 270 269 272 276 274 271 274 277 280 285 290 293 291 290
185 184 185 188 189 189 190 189 190 191 192 194 197 198 199 200 200 199 198 200 204 205 205 202 201 202 203 201 200 199 199 200 202 201 201 203 207 209 210 212 214 216 219 222 224 226 228 231 234 235 234 232 231 232 234 235 235 239 242 242 242 245 249 253 256 259 260 262 264 265 266 266 266 268 271 272 274 280 283 281 281 285 289 291 290
185 185 186 187 187 187 187 187 188 189 190 192 195 197 197 197 199 198 197 199 202 204 205 205 203 203 204 202 201 200 201 203 204 203 201 201 204 209 211 212 215 217 219 223 225 226 228 232 237 239 239 236 234 234 235 235 234 236 238 239 239 242 249 253 255 256 258 261 263 263 264 264 266 269 272 275 280 286 289 287 286 289 292 294 294
187 187 186 185 184 184 185 186 186 187 189 190 192 194 195 195 196 197 196 197 200 201 203 205 206 205 205 205 204 203 205 207 206 205 204 203 203 207 212 214 215 218 219 221 224 226 228 233 238 240 240 238 237 238 241 243 243 244 246 245 244 243 246 252 256 258 260 263 264 264 265 268 269 271 275 280 283 288 296 300 299 296 295 296 297
189 188 186 183 182 182 183 183 184 186 187 187 188 190 193 193 194 195 196 196 196 198 201 203 206 207 207 207 208 208 209 210 209 208 208 209 208 207 212 215 216 218 219 220 222 224 227 233 237 239 237 235 235 237 242 247 249 251 253 254 253 250 247 248 252 255 258 263 267 267 267 270 274 275 277 282 288 294 302 304 300 297 298 298 296
189 188 186 184 182 182 182 182 183 184 184 184 184 186 189 192 193 194 195 195 194 196 200 202 204 207 208 209 210 211 213 213 212 211 212 215 216 213 213 217 219 220 219 220 221 223 226 230 235 237 237 235 232 231 236 244 249 252 253 254 256 256 253 250 249 250 252 258 265 267 267 270 274 275 278 286 294 299 301 301 302 304 301 295 292
188 187 187 185 183 182 182 181 182 182 182 182 181 183 187 190 192 193 194 194 194 196 199 201 203 206 208 210 211 213 216 217 215 214 216 219 221 219 216 217 221 223 222 221 221 222 225 227 230 233 234 233 231 228 228 233 241 249 251 252 256 258 259 255 251 248 247 250 255 260 266 270 271 274 279 283 289 299 306 308 310 306 295 289 292
186 186 187 186 183 183 182 181 181 180 179 180 181 183 186 188 191 193 194 195 195 196 199 201 202 205 207 209 211 213 218 220 217 215 217 221 223 221 218 218 223 225 223 222 222 222 224 225 228 231 231 231 230 228 227 226 229 236 241 246 250 252 253 253 253 252 250 250 253 258 265 269 270 273 278 279 284 298 307 308 305 297 290 290 294
185 185 186 186 184 184 183 181 181 180 179 181 182 183 185 186 189 192 196 199 199 198 200 202 203 204 205 208 211 214 218 221 218 216 218 220 222 220 218 220 226 228 225 223 222 223 224 224 226 230 231 232 232 230 229 227 227 231 234 240 246 248 250 253 255 257 258 258 260 264 268 270 266 266 269 274 282 293 299 300 297 292 289 291 295
186 185 186 187 185 185 184 182 182 182 181 182 183 184 185 185 187 190 195 200 202 201 202 204 204 204 205 207 210 213 217 220 220 218 217 216 216 216 216 218 223 226 226 225 223 223 224 224 225 228 231 234 234 233 233 231 230 233 238 243 249 252 254 256 258 258 258 260 266 269 270 271 269 267 271 277 284 290 293 294 294 293 293 294 296
188 186 187 187 185 185 186 185 184 184 184 184 185 185 185 185 187 190 195 200 205 205 205 206 207 207 207 207 208 211 216 220 220 219 217 215 213 212 212 214 220 224 225 225 224 223 225 226 226 227 230 234 236 236 237 235 232 232 236 241 245 248 251 254 258 261 259 259 264 268 268 269 272 274 276 278 283 288 289 287 288 291 294 293 292
190 188 187 186 183 184 187 187 185 185 186 186 186 186 185 186 187 190 195 201 206 208 208 209 210 210 210 210 209 210 216 221 221 219 218 217 215 211 207 210 217 221 222 223 223 223 226 228 228 228 229 231 233 235 237 236 231 228 232 238 242 245 248 250 255 262 261 255 254 260 267 271 272 276 281 285 290 294 290 285 283 281 282 287 290
190 187 185 184 183 184 186 187 186 187 187 187 187 186 185 186 187 190 195 200 205 209 211 211 213 214 214 214 212 211 215 219 221 219 218 218 217 211 206 208 214 217 220 222 221 222 225 226 229 232 233 233 234 235 238 238 235 230 230 235 240 243 244 248 256 267 273 265 258 259 269 274 272 274 281 284 289 293 291 288 285 276 271 280 288
186 185 184 184 185 185 186 186 186 187 187 186 187 187 186 187 188 190 195 199 203 208 212 213 215 216 217 218 216 214 214 216 219 219 217 218 218 214 209 208 211 214 217 220 221 224 225 225 228 233 235 236 238 239 240 242 241 239 235 235 239 241 244 253 267 278 280 274 269 267 271 276 277 278 281 279 277 281 284 286 291 290 283 284 289
184 183 184 185 185 185 185 186 185 186 187 186 186 187 188 188 189 191 196 199 201 205 209 213 216 218 218 220 219 218 216 214 217 219 218 218 219 217 213 210 210 212 215 219 222 224 225 225 227 230 232 235 237 239 242 243 244 244 243 241 242 243 247 254 264 272 272 268 266 266 267 272 277 280 283 284 284 288 291 291 295 298 292 287 289
183 182 184 185 185 184 184 183 183 184 186 185 185 186 187 188 189 190 193 197 199 201 205 209 214 217 218 219 218 219 218 214 215 218 219 219 220 219 218 215 211 211 217 220 221 224 226 227 227 228 229 230 231 236 241 241 241 243 245 245 245 246 248 252 256 258 257 255 255 258 264 270 276 278 278 279 282 290 302 303 299 300 299 296 294
181 181 183 184 183 182 181 181 182 183 184 184 184 185 185 186 187 188 190 193 195 198 200 203 209 215 217 218 218 217 215 214 215 217 219 220 220 220 221 220 215 213 218 224 225 227 228 228 228 229 229 227 227 234 241 242 240 242 243 240 239 241 244 247 246 240 237 239 242 248 258 264 267 268 265 268 283 296 306 309 307 308 308 303 299
181 181 182 181 180 179 178 179 181 182 182 183 183 183 184 184 184 185 188 191 194 196 197 199 205 211 214 217 217 215 213 212 215 218 219 221 222 221 223 223 220 216 217 222 229 232 229 224 224 225 222 219 221 228 234 238 239 240 238 234 232 236 239 235 227 221 217 218 229 239 247 248 246 248 251 261 283 297 307 314 310 308 307 303 301
182 180 180 180 177 176 175 176 179 180 181 182 183 183 183 183 183 184 187 191 193 195 197 200 203 207 210 213 214 213 212 211 214 216 216 218 220 221 222 224 223 220 219 220 225 232 232 225 220 213 206 206 212 219 225 234 238 235 231 227 224 226 225 213 199 198 201 208 222 231 236 237 222 221 241 260 279 291 302 309 305 305 311 313 311
182 180 179 178 176 175 175 174 176 179 180 181 183 184 185 186 185 185 189 191 193 194 197 200 202 204 206 210 211 212 211 211 213 211 209 211 215 217 219 222 222 221 220 220 224 231 238 238 234 227 217 211 212 216 223 232 235 228 220 218 216 217 216 203 187 188 197 205 214 215 214 227 225 227 247 263 270 275 290 305 308 311 318 318 314
180 180 178 176 175 175 174 173 175 179 182 184 186 186 188 191 190 190 193 193 192 195 197 199 202 204 205 206 207 209 211 212 212 206 201 207 211 212 215 218 219 219 218 218 221 225 232 236 234 226 218 213 212 216 221 224 224 220 215 212 209 209 210 198 182 179 186 191 198 199 194 200 208 216 229 236 241 264 292 306 309 310 316 316 310
178 179 177 176 176 175 174 175 178 181 181 180 180 180 185 191 193 192 194 197 198 197 197 199 202 204 205 206 206 207 208 209 212 209 203 205 207 208 211 215 217 218 218 215 213 213 216 221 221 215 213 215 217 220 219 214 215 219 216 212 209 207 206 200 187 181 184 187 185 180 184 193 195 198 211 220 240 264 272 285 295 297 302 302 296
178 179 178 178 176 176 178 179 181 184 179 169 165 164 169 181 188 187 189 197 201 200 199 200 203 203 204 205 207 211 212 210 209 208 205 202 200 203 211 214 215 218 218 212 206 205 209 213 216 215 217 219 220 221 213 202 206 215 212 210 212 209 203 204 201 189 185 189 186 176 184 197 188 188 213 230 249 249 241 248 264 274 286 294 297
183 182 184 183 176 176 182 181 180 185 179 162 159 158 153 161 175 178 182 191 198 200 201 202 203 205 207 205 205 208 212 209 204 202 200 198 195 198 206 211 209 212 213 207 201 202 208 212 213 215 215 215 217 218 205 190 196 209 206 204 214 216 208 210 210 189 171 180 183 172 172 176 168 177 199 211 230 238 231 236 255 275 295 301 308
186 183 183 179 170 174 182 180 178 184 178 160 159 161 152 149 154 156 169 183 190 194 199 201 202 205 209 210 207 203 197 195 196 197 197 197 196 197 202 203 200 203 206 202 199 203 210 212 214 216 215 213 216 215 201 189 194 202 202 201 209 212 206 202 193 156 125 163 209 202 199 190 169 173 194 201 219 242 260 279 290 317 323 318 321
188 185 182 175 163 168 180 179 177 184 180 164 161 166 163 161 157 146 147 163 176 184 190 193 193 191 190 193 198 196 189 183 182 186 192 196 199 201 201 197 196 197 196 193 195 206 213 214 215 214 207 202 203 198 186 181 184 190 198 198 190 181 176 172 169 165 163 199 229 248 273 273 248 212 256 274 297 312 324 326 325 335 337 336 337
184 178 178 177 169 165 175 179 180 184 183 171 165 171 176 176 168 155 147 151 161 170 178 182 182 181 177 176 178 183 184 181 181 188 197 201 203 205 200 192 189 188 186 187 197 213 215 204 194 189 183 179 179 176 170 168 169 177 185 177 159 155 162 167 173 179 182 194 210 226 251 262 269 316 309 302 322 327 321 323 328 340 345 343 340
172 148 149 164 169 172 178 183 185 185 181 172 170 174 177 172 164 161 163 167 163 156 156 167 174 178 181 181 183 186 188 190 193 201 205 203 199 196 188 177 174 176 178 185 199 204 190 170 163 168 171 171 171 168 161 156 157 164 168 157 144 146 153 154 162 170 170 181 204 215 223 237 255 275 266 272 300 311 312 322 329 336 341 340 339
120 129 132 146 162 174 180 185 189 187 179 174 171 165 157 154 159 165 168 163 152 145 142 146 154 165 176 184 189 192 195 199 200 199 195 189 182 175 164 157 160 166 171 179 181 168 154 149 149 150 153 155 154 150 148 151 154 157 160 150 135 128 129 142 164 173 177 188 198 198 206 221 230 242 255 264 276 283 295 313 318 319 328 335 331
48 56 70 96 147 167 172 176 179 177 174 174 170 154 150 161 173 172 167 156 143 140 141 140 141 143 147 158 171 175 177 179 175 167 160 155 151 146 142 142 148 151 148 147 145 136 130 132 137 140 144 146 143 143 148 152 153 154 150 138 131 140 158 172 170 167 184 200 192 188 215 231 226 234 264 273 275 282 296 308 309 308 313 314 309
48 48 51 55 84 131 147 148 147 151 159 166 159 145 146 156 159 157 159 156 144 139 141 141 139 137 134 136 144 147 144 140 136 133 134 134 132 128 126 127 130 131 129 130 132 129 127 127 127 128 133 137 139 145 150 150 151 151 145 136 137 149 160 164 161 165 193 210 203 196 214 231 227 231 256 264 263 271 286 292 300 311 312 301 299
52 54 60 61 60 66 78 109 132 139 141 140 138 137 144 152 154 153 157 157 148 142 142 140 137 137 138 137 136 134 132 129 126 124 124 124 121 120 121 119 118 120 122 124 125 126 127 130 130 129 132 136 138 140 139 138 143 150 150 148 152 157 160 164 169 179 205 223 221 215 218 230 231 235 256 265 262 267 282 284 286 296 301 300 303
59 59 66 73 73 66 57 58 81 116 130 132 141 151 157 162 164 162 159 155 150 145 142 138 135 139 144 144 141 138 136 134 130 124 120 118 116 115 116 115 115 116 116 117 118 118 117 120 123 123 121 126 132 135 134 132 134 147 160 164 162 167 180 189 189 190 205 221 227 226 225 231 237 242 249 256 265 272 277 278 279 284 291 295 298
70 70 68 75 86 85 76 72 75 87 113 135 154 165 166 163 163 161 157 153 147 140 133 129 131 140 150 155 154 149 142 135 129 122 119 118 114 110 109 111 113 113 110 109 114 116 112 110 110 104 97 95 101 112 125 136 142 152 167 175 174 179 193 203 202 200 214 223 223 223 228 234 243 248 248 261 307 288 255 261 273 284 291 295 298
70 78 74 72 76 77 73 72 77 79 78 74 79 110 139 147 148 144 139 135 130 125 119 116 119 126 135 139 137 132 128 126 124 120 118 116 112 105 104 106 107 106 104 104 109 110 106 102 100 91 82 80 82 86 95 113 132 146 160 175 184 194 214 202 197 202 252 241 222 227 251 257 259 259 258 268 277 265 259 270 284 290 293 297 299
72 76 82 83 83 79 72 69 74 77 73 64 57 58 70 90 102 105 106 110 113 116 116 115 114 115 116 116 116 117 119 122 123 121 119 117 112 107 104 104 102 102 101 101 104 105 103 101 99 93 87 86 86 86 89 95 105 121 137 145 144 74 38 50 107 155 301 264 254 300 322 293 268 273 273 266 260 262 273 290 295 293 293 295 295
82 75 78 82 84 84 81 76 77 80 79 75 70 66 62 61 66 75 86 99 111 116 118 117 115 113 112 112 113 118 121 122 122 122 119 116 113 111 109 107 105 104 102 99 99 101 103 104 103 102 101 101 100 99 102 97 85 82 86 86 82 72 60 57 60 54 25 325 296 310 311 279 265 274 278 273 270 275 283 288 288 289 291 290 290
78 76 75 74 78 83 86 85 82 82 84 83 82 80 78 73 69 70 73 79 91 108 117 123 124 122 118 116 116 118 120 118 118 118 116 113 110 109 106 103 101 100 99 95 92 94 98 100 99 98 98 97 93 89 89 84 76 76 83 82 75 72 71 67 69 69 38 1 329 318 314 299 287 287 290 290 289 287 288 292 297 299 297 294 292
65 77 79 75 71 75 82 85 84 82 84 88 87 87 87 87 85 83 83 83 84 91 103 112 117 119 117 114 112 112 111 108 106 105 105 104 102 100 98 96 95 93 92 91 90 92 95 96 95 94 93 90 85 80 76 73 70 71 77 78 74 68 58 42 33 32 3 330 313 314 320 318 308 305 310 310 303 296 294 295 297 298 297 295 294
55 66 77 81 78 73 73 79 81 79 80 86 89 88 88 89 90 91 90 90 89 85 82 86 92 98 102 103 103 102 101 96 93 93 94 94 94 94 94 94 93 91 89 88 90 92 93 94 94 95 94 90 86 82 80 78 75 71 69 68 65 61 52 40 33 29 16 356 338 331 329 324 316 314 318 316 309 303 300 296 293 293 294 294 294
54 56 63 74 81 81 77 78 81 80 78 79 85 89 90 90 90 90 90 91 90 87 81 78 76 75 76 82 90 95 95 90 86 86 86 86 88 90 91 92 94 94 92 90 90 91 91 89 88 90 89 86 83 82 82 81 78 73 67 62 57 51 46 41 37 30 18 10 9 4 348 333 324 320 319 318 314 310 306 302 299 299 299 297 296
64 64 65 66 70 73 75 78 84 89 91 88 84 82 83 85 88 90 92 93 94 95 94 92 89 85 82 80 82 88 90 88 85 84 83 83 84 86 87 91 95 95 92 90 89 88 86 84 83 83 83 81 79 79 79 77 74 68 63 57 51 46 41 38 36 29 21 20 20 2 335 321 320 319 317 316 315 312 310 310 311 310 307 304 302
69 73 74 72 71 72 74 74 74 78 86 92 91 85 79 80 83 86 89 92 97 99 100 100 101 101 100 96 92 91 90 88 87 87 85 85 86 87 87 89 92 91 88 86 85 84 82 82 81 81 80 78 76 74 72 70 67 62 57 51 46 42 39 40 39 35 35 39 34 8 337 326 326 323 318 317 318 317 318 320 318 314 310 307 306
69 72 74 73 73 74 73 70 66 64 65 72 79 80 79 79 82 85 89 92 95 95 95 96 98 101 102 101 99 96 92 90 89 88 87 86 88 90 90 89 89 89 88 87 85 84 83 82 81 79 77 75 72 69 68 67 65 62 56 50 47 44 44 45 45 43 46 47 37 14 353 346 342 335 330 330 327 322 320 318 314 311 309 308 306